This is the latest recevied weather packets stored in our database for station/object VE3TEJ. If no packets are shown the sender has not sent any weather packets the latest 10 day(s).
| Time | Temp. | Humidity | Pressure | Rain* | Wind** | Luminosity | Snow |
|---|---|---|---|---|---|---|---|
| 1778194658 | 9.44° C | 58% | 1009.6 hPa | 0 mm | - | - | - |
| 1778194359 | 9.44° C | 56% | 1009.6 hPa | 0 mm | - | - | - |
| 1778194059 | 10° C | 58% | 1009.5 hPa | 0 mm | - | - | - |
| 1778193758 | 10° C | 57% | 1009.5 hPa | 0 mm | - | - | - |
| 1778193458 | 10° C | 57% | 1009.6 hPa | 0 mm | - | - | - |
| 1778193157 | 9.44° C | 60% | 1009.7 hPa | 0 mm | - | - | - |
| 1778192859 | 9.44° C | 59% | 1009.5 hPa | 0 mm | - | - | - |
| 1778192558 | 9.44° C | 59% | 1009.6 hPa | 0 mm | - | - | - |
| 1778192258 | 9.44° C | 61% | 1009.8 hPa | 0 mm | - | - | - |
| 1778191957 | 9.44° C | 60% | 1009.7 hPa | 0 mm | - | - | - |
| 1778191657 | 9.44° C | 63% | 1009.9 hPa | 0 mm | - | - | - |
| 1778191359 | 8.89° C | 63% | 1009.9 hPa | 0 mm | - | - | - |
| 1778191058 | 8.33° C | 64% | 1009.9 hPa | 0 mm | - | - | - |
| 1778190758 | 7.78° C | 66% | 1009.8 hPa | 0 mm | - | - | - |
| 1778190457 | 7.78° C | 67% | 1009.9 hPa | 0.25 mm | - | - | - |
| 1778190159 | 8.33° C | 67% | 1010 hPa | 0.25 mm | - | - | - |
| 1778189859 | 8.33° C | 61% | 1010.1 hPa | 0.25 mm | - | - | - |
| 1778189558 | 8.33° C | 61% | 1009.8 hPa | 0.25 mm | - | - | - |
| 1778189258 | 8.33° C | 62% | 1009.7 hPa | 0.25 mm | - | - | - |
| 1778188958 | 8.33° C | 62% | 1009.6 hPa | 0.25 mm | - | - | - |
| 1778188659 | 8.89° C | 63% | 1009.8 hPa | 0.25 mm | - | - | - |
| 1778188359 | 8.89° C | 62% | 1009.6 hPa | 0.25 mm | - | - | - |
| 1778188058 | 8.89° C | 63% | 1009.8 hPa | 0.25 mm | - | - | - |
| 1778187758 | 8.89° C | 62% | 1009.5 hPa | 0.25 mm | - | - | - |
| 1778187457 | 9.44° C | 62% | 1009.5 hPa | 0.25 mm | - | - | - |
* Rain latest hour (hover to see other rain measurements)
** Current wind speed in m/s (hover to see current wind gust speed)